Weather History for King Salmon, AK

Change the Weather History Date:

Tuesday, January 7, 2014

  Actual Average Record
Temperature  
Mean Temperature 39 °F 16 °F  
Max Temperature 43 °F 24 °F 43 °F (1988)
Min Temperature 34 °F - -40 °F (2007)
Degree Days  
Heating Degree Days 26 49  
Month to date heating degree days 205 339  
Since 1 July heating degree days 4448 5152  
Cooling Degree Days 0    
Month to date cooling degree days 0  
Year to date cooling degree days 0  
Moisture  
Dew Point 33 °F    
Average Humidity 0    
Maximum Humidity 0    
Minimum Humidity 0    
Precipitation  
Precipitation 0.00 in 0.03 in 0.45 in (1957)
Month to date precipitation 0.40 0.22  
Year to date precipitation 0.40 0.22  
Snow  
Snow 0.00 in 0.30 in 4.30 in (1957)
Month to date snowfall 1.0 2.0  
Since 1 July snowfall 15.8 21.3  
Snow Depth 0.00 in    
Sea Level Pressure  
Sea Level Pressure 29.24 in    
Wind  
Wind Speed 11 mph (SSE)    
Max Wind Speed 17 mph    
Max Gust Speed 17 mph    
Visibility 10 miles    
Events      
T = Trace of Precipitation, MM = Missing Value Source: NWS Daily Summary

Daily Weather History Graph

Daily Weather History Graph

Search for Another Location

Airport:

Trip Planner

Search our weather history database for the weather conditions in past years. The results will help you decide how hot, cold, wet, or windy it might be!

Date:

Astronomy

Jan. 07, 2014 Rise Set
Actual Time 10:13 AM AKST 4:53 PM AKST
Civil Twilight 9:21 AM AKST 5:44 PM AKST
Nautical Twilight 8:29 AM AKST 6:37 PM AKST
Astronomical Twilight 7:40 AM AKST 7:26 PM AKST
Moon 12:19 PM AKST (1/7) 1:19 AM AKST (1/7)
Length of Visible Light 8h 23m
Length of Day
6h 39m
Waxing Crescent, 47% of the Moon is Illuminated
Jan 7
Waxing Crescent
Jan 7
First Quarter
Jan 15
Full
Jan 23
Last Quarter
Jan 30
New

Hourly Weather History & Observations

Time (AKST) Temp. Windchill Dew Point Humidity Pressure Visibility Wind Dir Wind Speed Gust Speed Precip Events Conditions
12:54 AM 39.0 °F 30.3 °F 32.4 °F 77% 29.31 in 10.0 mi SSE 16.1 mph - N/A   Overcast
1:54 AM 39.0 °F 32.8 °F 32.2 °F 76% 29.30 in 10.0 mi SSE 9.2 mph - N/A   Overcast
2:54 AM 36.3 °F 30.8 °F 31.6 °F 83% 29.31 in 10.0 mi South 6.9 mph - N/A   Scattered Clouds
3:54 AM 36.3 °F 30.8 °F 31.6 °F 83% 29.31 in 10.0 mi South 6.9 mph - N/A   Scattered Clouds
4:54 AM 36.3 °F 30.8 °F 31.6 °F 83% 29.30 in 10.0 mi South 6.9 mph - N/A   Scattered Clouds
5:54 AM 37.8 °F 32.5 °F 32.9 °F 83% 29.28 in 10.0 mi South 6.9 mph - N/A   Partly Cloudy
6:54 AM 36.7 °F 29.9 °F 32.7 °F 86% 29.25 in 10.0 mi South 9.2 mph - N/A   Partly Cloudy
7:54 AM 39.7 °F 31.9 °F 33.3 °F 78% 29.23 in 10.0 mi SSE 13.8 mph - N/A   Overcast
8:54 AM 39.7 °F 31.9 °F 33.3 °F 78% 29.23 in 10.0 mi SSE 13.8 mph - N/A   Mostly Cloudy
9:54 AM 40.1 °F 32.4 °F 34.0 °F 79% 29.21 in 10.0 mi SE 13.8 mph - N/A   Mostly Cloudy
10:54 AM 40.5 °F 32.8 °F 34.2 °F 78% 29.21 in 10.0 mi SE 13.8 mph - N/A   Mostly Cloudy
11:54 AM 41.0 °F 33.1 °F 34.5 °F 78% 29.20 in 10.0 mi SE 15.0 mph - N/A   Overcast
12:54 PM 41.0 °F 33.5 °F 34.9 °F 79% 29.19 in 10.0 mi SE 13.8 mph - N/A   Overcast
1:54 PM 42.6 °F 35.6 °F 35.4 °F 76% 29.19 in 10.0 mi SE 13.8 mph - N/A   Overcast
2:54 PM 43.2 °F 37.9 °F 34.7 °F 72% 29.17 in 10.0 mi SE 9.2 mph - N/A   Overcast
3:54 PM 42.1 °F 36.1 °F 34.0 °F 73% 29.19 in 10.0 mi SE 10.4 mph - N/A   Mostly Cloudy
4:54 PM 38.1 °F 28.8 °F 34.0 °F 85% 29.18 in 10.0 mi SSE 17.3 mph - N/A   Mostly Cloudy
5:54 PM 37.6 °F 30.0 °F 33.1 °F 84% 29.21 in 10.0 mi SE 11.5 mph - N/A   Mostly Cloudy
6:54 PM 36.1 °F 29.3 °F 31.6 °F 84% 29.22 in 10.0 mi East 9.2 mph - N/A   Mostly Cloudy
7:54 PM 37.9 °F 31.5 °F 31.1 °F 76% 29.23 in 10.0 mi SE 9.2 mph - N/A   Overcast
8:54 PM 37.8 °F 31.8 °F 31.5 °F 78% 29.24 in 10.0 mi SE 8.1 mph - N/A   Overcast
9:54 PM 37.2 °F 29.1 °F 32.0 °F 81% 29.25 in 10.0 mi SSE 12.7 mph - N/A   Mostly Cloudy
10:54 PM 36.5 °F 29.7 °F 32.4 °F 85% 29.26 in 10.0 mi SE 9.2 mph - N/A   Mostly Cloudy
11:54 PM 34.3 °F 29.2 °F 31.3 °F 89% 29.27 in 10.0 mi ESE 5.8 mph - N/A   Mostly Cloudy